Disclaimer

Please do not use the information listed here in-flight or in-navigation, as they are not provided to us by the airports but are provided by volunteers, so they might be outdated.

Search


Regions


Airport information page

Radio informations:
Tower (TWR) - 120.375 MHz
Ground (GND) - 121.9 MHz
YESILKOY APP - 120.5 MHz

Airport informations:
Latitude: 41° 08' 17.70" N
Longitude: 027° 55' 08.74" E
Elevation: 574 feet - 175 meters
Operating hours: 24 hour operations
Operating agency: Military-civil joint use airport
Timezone: UTC+2(+3DT) - Dates notified by NOTAM
Fuel: Jet A1, without icing nhibitor.

Runway information:
05/23 - 9844 x 148 feet< - >3000 x 45 meters

Recent METARs:
LTBU 212120Z 02016KT 9999 SCT011 SCT035 BKN100 04/01 Q1021 RMK RWY22 04011KT
LTBU 212150Z 03014KT 9999 SCT011 SCT035 BKN100 03/01 Q1020 RMK RWY22 04011KT
LTBU 212220Z 03011KT 9999 SCT011 SCT035 BKN100 04/01 Q1020 RMK RWY22 05011KT

Airport on the map: